Flag for U.S.A. Weather past 2 weeks in Norwalk, California, U.S.A.

Now
73 °F

Sunny.


Feels Like: 75 °F
Forecast: 67 / 80 °F
Wind: 8 mph from Southwest

Location: Fullerton Municipal Airport

Current Time: Sep 1, 2015 at 7:49:15 PM

Latest Report: Sep 1, 2015 at 6:53 PM


Visibility: 10 mi

Pressure: 29.88 "Hg

Humidity: 71%

Dew point: 63 °F

Location of NorwalkLocation

Historic Weather in Norwalk — Graph

°F

Norwalk temperature yesterday

Maximum temperature yesterday: 83 °F (at 12:53 PM)
Minimum temperature yesterday: 70 °F (at 2:53 AM)
Average temperature yesterday: 74 °F

Past Weeks' High & Low Weather Summary

 TemperatureHumidityPressure
High98 °F (Aug 28, 1:53 PM)88% (Aug 30, 5:02 AM)29.97 "Hg (Aug 30, 5:02 AM)
Low67 °F (Aug 23, 4:53 AM)22% (Aug 28, 1:53 PM)29.79 "Hg (Aug 28, 5:53 PM)
Average77 °F65%29.88 "Hg
* Reported Aug 17 6:53 PM — Sep 1 6:53 PM, Norwalk, Weather by CustomWeather, © 2015

Note: Actual official high and low records may vary slightly from our data, if they occured in-between our weather recording intervals... More about our weather records

Advertising

Norwalk weather history for previous 24 hours

 ConditionsComfort  
Time TempWeatherWind HumidityBarometerVisibility
6:53 PM
Tue, Sep 1
73 °FSunny.8 mph71%29.88 "Hg10 mi
5:53 PM76 °FSunny.8 mph62%29.87 "Hg10 mi
4:53 PM78 °FSunny.8 mph58%29.86 "Hg10 mi
3:53 PM77 °FSunny.9 mph58%29.86 "Hg10 mi
1:53 PM81 °FSunny.7 mph49%29.88 "Hg10 mi
12:53 PM81 °FSunny.7 mph49%29.89 "Hg10 mi
11:53 AM78 °FSunny.7 mph54%29.91 "Hg10 mi
10:53 AM78 °FPassing clouds.6 mph50%29.93 "Hg10 mi
9:53 AM75 °FPassing clouds.No wind58%29.92 "Hg10 mi
8:53 AM73 °FOvercast.5 mph62%29.92 "Hg10 mi
7:53 AM72 °FOvercast.6 mph66%29.91 "Hg10 mi
6:53 AM72 °FOvercast.5 mph66%29.90 "Hg10 mi
5:53 AM72 °FOvercast.5 mph66%29.89 "Hg10 mi
4:53 AM72 °FOvercast.6 mph68%29.88 "Hg10 mi
3:53 AM72 °FOvercast.5 mph68%29.89 "Hg10 mi
2:53 AM72 °FOvercast.3 mph68%29.89 "Hg10 mi
1:53 AM72 °FOvercast.3 mph68%29.89 "Hg10 mi
12:53 AM71 °FOvercast.No wind73%29.90 "Hg10 mi
11:53 PM
Mon, Aug 31
71 °FOvercast.7 mph76%29.90 "Hg10 mi
10:53 PM71 °FOvercast.6 mph78%29.89 "Hg10 mi
9:53 PM71 °FPassing clouds.6 mph78%29.88 "Hg10 mi
7:53 PM73 °FSunny.5 mph74%29.84 "Hg10 mi
Weather by CustomWeather, © 2015

See weather overviewHow to use our weather pages